Date,TemperatureHighF,TemperatureAvgF,TemperatureLowF,DewpointHighF,DewpointAvgF,DewpointLowF,HumidityHigh,HumidityAvg,HumidityLow,PressureMaxIn,PressureMinIn,WindSpeedMaxMPH,WindSpeedAvgMPH,GustSpeedMaxMPH,PrecipitationSumIn
2013-1-1,20,13,6,15,8,2,91,79,65,0.00,40.00,11,6,16,0.00
2013-1-2,21,16,12,14,11,3,91,80,66,0.00,40.00,11,6,15,0.00
2013-1-3,25,19,14,22,16,12,92,87,72,0.00,40.00,13,5,20,0.00
2013-1-4,31,26,22,25,18,13,84,70,57,0.00,40.00,17,10,31,0.01
2013-1-5,30,27,23,23,20,18,94,78,61,0.00,40.00,9,4,18,0.01
2013-1-6,27,24,22,25,21,17,99,88,74,0.00,40.00,8,4,13,0.01
2013-1-7,38,29,19,29,23,15,87,77,63,0.00,40.00,26,13,43,0.04
2013-1-8,42,33,26,29,26,22,98,77,53,0.00,40.00,10,6,16,0.07
2013-1-9,37,34,30,32,27,22,93,78,66,0.00,40.00,13,9,22,0.03
2013-1-10,40,34,27,30,26,23,90,74,55,0.00,40.00,9,6,18,0.01
2013-1-11,40,36,34,40,35,29,100,96,77,0.00,40.00,11,7,19,0.21
2013-1-12,47,40,31,45,36,27,100,89,72,0.00,40.00,21,10,36,0.03
2013-1-13,31,28,23,27,24,22,95,86,76,0.00,40.00,6,5,13,0.01
2013-1-14,25,19,8,20,12,3,92,76,49,0.00,40.00,9,6,17,0.00
2013-1-15,27,16,5,15,7,0,87,69,56,0.00,40.00,13,8,25,0.00
2013-1-16,31,23,3,26,17,0,91,76,63,0.00,40.00,19,10,38,0.00
2013-1-17,12,7,-2,5,1,-7,85,76,65,0.00,40.00,10,7,23,0.00
2013-1-18,20,10,1,19,6,-4,94,84,67,0.00,40.00,10,6,16,0.00
2013-1-19,28,21,18,27,19,15,97,92,84,0.00,40.00,10,4,21,0.00
2013-1-20,22,10,3,18,5,-1,88,79,64,0.00,40.00,16,9,31,0.00
2013-1-21,9,2,-4,4,-3,-10,82,78,72,0.00,40.00,11,7,20,0.00
2013-1-22,3,-5,-11,-5,-11,-17,81,73,60,0.00,40.00,7,3,10,0.00
2013-1-23,11,2,-5,1,-5,-12,82,72,59,0.00,40.00,10,6,16,0.00
2013-1-24,15,0,-9,3,-6,-15,84,74,56,0.00,40.00,8,3,13,0.00
2013-1-25,19,10,1,15,7,-3,90,85,80,0.00,40.00,9,5,15,0.00
2013-1-26,27,14,-7,18,9,-12,90,81,61,0.00,40.00,4,2,7,0.25
2013-1-27,27,21,14,24,18,11,94,89,84,0.00,40.00,10,6,16,0.08
2013-1-28,32,28,25,30,28,24,99,97,91,0.00,40.00,6,4,11,0.09
2013-1-29,35,32,28,35,32,28,100,99,98,0.00,40.00,11,6,21,0.39
2013-1-30,33,28,12,33,27,9,100,97,89,0.00,40.00,11,9,25,0.34
2013-1-31,14,11,7,11,8,4,90,88,86,0.00,40.00,11,7,25,0.01
2013-2-1,14,7,1,11,4,-3,89,86,82,0.00,40.00,12,4,17,0.00
2013-2-2,15,5,-4,11,1,-9,85,83,79,0.00,40.00,8,4,16,0.01
2013-2-3,17,8,-6,14,4,-11,88,84,78,0.00,40.00,11,5,21,0.01
2013-2-4,17,5,-18,14,1,-25,86,81,71,0.00,40.00,7,4,12,0.01
2013-2-5,20,11,-3,16,7,-7,92,85,79,0.00,40.00,9,4,19,0.01
2013-2-6,13,4,-10,10,0,-15,86,84,76,0.00,40.00,6,3,12,0.00
2013-2-10,31,14,31,31,-42,-100,99,44,99,0.00,40.00,9,9,16,0.00
2013-2-11,35,32,24,34,31,20,100,96,85,0.00,40.00,14,9,28,0.72
2013-2-12,27,24,15,23,20,13,90,85,73,0.00,40.00,8,6,18,0.01
2013-2-13,43,26,9,29,22,7,95,83,52,0.00,40.00,9,5,16,0.25
2013-2-14,33,30,22,31,28,17,98,92,82,0.00,40.00,11,5,23,0.09
2013-2-15,22,17,14,17,11,7,84,77,67,0.00,40.00,12,7,23,0.01
2013-2-28,32,26,17,20,15,9,74,63,52,0.00,40.00,13,11,27,0.02
2013-3-1,25,18,10,11,8,4,84,67,52,0.00,40.00,12,9,23,0.02
2013-3-2,25,15,6,13,7,2,83,71,56,0.00,40.00,9,7,17,0.00
2013-3-3,23,13,0,12,6,-4,88,75,57,0.00,40.00,8,5,14,0.00
2013-3-4,29,9,-11,9,-2,-17,84,63,26,0.00,40.00,8,4,15,0.00
2013-3-5,35,16,-6,21,7,-11,88,69,42,0.00,40.00,6,4,13,0.00
2013-3-6,41,29,23,28,24,20,95,82,54,0.00,40.00,9,5,18,0.00
2013-3-7,33,26,22,23,20,18,94,81,65,0.00,40.00,8,6,16,0.02
2013-3-8,44,30,16,31,24,15,97,81,53,0.00,40.00,11,4,17,0.02
2013-3-9,40,30,21,31,24,20,96,81,49,0.00,40.00,9,6,17,0.00
2013-3-10,37,33,32,36,33,31,100,99,96,0.00,40.00,10,6,16,0.34
2013-3-11,39,35,32,38,35,32,100,99,97,0.00,40.00,7,5,14,0.80
2013-3-12,33,25,15,33,22,13,100,89,75,0.00,40.00,8,6,16,0.23
2013-3-13,28,19,12,15,11,8,92,71,46,0.00,40.00,13,9,27,0.06
2013-3-14,40,23,-1,21,10,-5,85,60,33,0.00,40.00,10,5,15,0.05
2013-3-15,29,25,18,26,17,6,93,74,52,0.00,40.00,11,8,21,0.01
2013-3-16,26,17,7,15,2,-4,88,53,29,0.00,40.00,9,4,14,0.01
2013-3-17,33,16,3,15,6,-1,89,68,41,0.00,40.00,14,5,25,0.08
2013-3-18,32,19,5,25,11,-1,96,72,52,0.00,40.00,12,7,24,0.01
2013-3-19,32,26,21,28,24,19,96,91,80,0.00,40.00,15,8,23,0.15
2013-3-20,30,22,14,23,18,11,92,83,68,0.00,40.00,14,8,24,0.14
2013-3-21,26,23,20,23,17,14,92,77,61,0.00,40.00,12,8,21,0.02
2013-3-22,36,26,21,23,19,15,87,75,55,0.00,40.00,9,7,17,0.06
2013-3-23,41,24,7,25,17,4,94,75,49,0.00,40.00,9,5,19,0.03
2013-3-24,36,27,11,23,19,8,93,74,47,0.00,40.00,10,5,17,0.00
2013-3-25,38,31,26,27,22,17,81,70,57,0.00,40.00,11,7,21,0.00
2013-3-26,42,35,31,29,25,21,94,68,47,0.00,40.00,12,7,23,0.02
2013-3-27,43,34,27,26,25,24,90,71,50,0.00,40.00,10,7,19,0.02
2013-3-28,45,38,29,25,19,16,77,47,37,0.00,40.00,10,7,16,0.00
2013-3-29,49,34,20,30,23,19,96,67,32,0.00,40.00,8,4,15,0.00
2013-3-30,48,33,22,33,23,16,100,72,31,0.00,40.00,16,7,25,0.02
2013-3-31,39,34,24,37,30,-100,100,92,69,0.00,40.00,14,6,31,0.32
2013-4-1,26,20,17,18,14,6,91,78,47,0.00,40.00,14,9,28,0.11
2013-4-2,30,22,13,21,15,9,92,77,48,0.00,40.00,11,6,24,0.05
2013-4-3,38,28,21,18,11,5,82,51,30,0.00,40.00,11,7,22,0.07
2013-4-4,41,34,26,32,25,15,95,73,42,0.00,40.00,14,9,29,0.04
2013-4-5,35,29,19,24,14,9,74,54,38,0.00,40.00,10,7,20,0.03
2013-4-6,31,25,12,30,22,9,96,86,68,0.00,40.00,13,6,23,0.02
2013-4-7,36,33,31,33,30,26,100,89,72,0.00,40.00,11,7,21,0.35
2013-4-8,40,33,23,33,28,22,98,83,65,0.00,40.00,9,4,19,0.05
2013-4-9,40,34,32,37,33,30,100,94,79,0.00,40.00,9,4,15,0.05
2013-4-10,42,34,29,31,24,18,97,69,40,0.00,40.00,10,7,20,0.00
2013-4-11,34,30,25,24,13,8,86,51,37,0.00,40.00,11,7,20,0.00
2013-4-12,31,27,23,28,25,15,96,91,55,0.00,40.00,11,6,20,0.10
2013-4-13,40,29,21,33,26,20,96,89,72,0.00,40.00,6,3,11,0.31
2013-4-14,52,35,27,30,25,21,94,70,36,0.00,40.00,9,5,15,0.04
2013-4-15,48,38,32,47,34,24,96,87,69,0.00,40.00,13,9,26,0.30
2013-4-16,46,36,28,35,28,26,96,73,46,0.00,40.00,10,6,20,0.01
2013-4-17,47,36,25,31,28,24,99,74,47,0.00,40.00,9,5,15,0.00
2013-4-18,41,37,35,40,34,26,100,91,68,0.00,40.00,7,5,19,0.31
2013-4-19,40,35,23,40,31,18,100,86,66,0.00,40.00,19,14,32,0.29
2013-4-20,32,23,15,18,13,10,88,67,42,0.00,40.00,11,8,27,0.01
2013-4-21,42,26,4,27,13,0,88,64,29,0.00,40.00,11,5,19,0.01
2013-4-22,51,41,32,30,28,25,83,62,42,0.00,40.00,12,7,19,0.00
2013-4-23,44,37,32,42,33,27,94,85,67,0.00,40.00,9,5,17,0.18
2013-4-24,44,35,27,29,22,10,88,62,27,0.00,40.00,11,8,21,0.02
2013-4-25,44,33,25,34,28,22,96,81,50,0.00,40.00,12,5,21,0.18
2013-4-26,46,36,22,40,31,21,96,85,49,0.00,40.00,12,5,21,0.16
2013-4-27,63,47,30,46,38,29,98,74,44,0.00,40.00,12,5,20,0.10
2013-4-28,69,52,35,41,36,-100,96,63,27,0.00,40.00,8,5,17,0.00
2013-4-29,54,48,43,52,46,40,100,94,74,0.00,40.00,7,4,14,0.02
2013-4-30,70,58,44,57,51,44,100,81,58,0.00,40.00,15,8,23,0.02
2013-5-1,62,51,39,51,42,32,99,74,42,0.00,40.00,12,7,22,0.00
2013-5-2,68,47,37,47,38,32,91,73,46,0.00,40.00,12,8,21,0.00
2013-5-3,72,50,36,45,38,32,98,70,31,0.00,40.00,8,5,16,0.03
2013-5-4,78,60,43,46,41,36,85,54,28,0.00,40.00,8,4,16,0.03
2013-5-5,75,50,32,46,36,27,96,66,17,0.00,40.00,8,4,14,0.00
2013-5-6,67,49,33,44,37,32,97,69,36,0.00,40.00,9,5,16,0.00
2013-5-7,76,55,33,42,35,29,95,58,22,0.00,40.00,10,4,15,0.00
2013-5-8,81,59,37,39,31,25,75,41,15,0.00,40.00,9,3,16,0.00
2013-5-9,59,48,40,43,36,30,82,64,44,0.00,40.00,11,6,19,0.00
2013-5-10,46,40,33,36,33,31,97,77,59,0.00,40.00,9,5,14,0.24
2013-5-11,46,35,27,36,31,26,96,88,62,0.00,40.00,9,5,20,0.33
2013-5-12,35,33,31,33,27,-100,97,81,68,0.00,40.00,16,11,30,0.37
2013-5-13,48,39,28,32,24,19,91,58,35,0.00,40.00,11,6,19,0.01
2013-5-14,55,45,37,39,35,25,92,69,52,0.00,40.00,14,8,23,0.06
2013-5-15,70,54,40,47,38,30,94,61,23,0.00,40.00,14,9,28,0.01
2013-5-16,58,44,40,36,14,-100,81,57,42,0.00,40.00,12,8,20,0.00
2013-5-17,67,50,31,40,30,-100,94,59,31,0.00,40.00,10,5,17,0.00
2013-5-18,67,54,37,41,37,33,86,56,33,0.00,40.00,14,6,21,0.00
2013-5-19,78,62,50,59,48,39,87,62,48,0.00,40.00,10,6,16,0.02
2013-5-20,68,60,56,58,54,49,92,80,61,0.00,40.00,14,8,25,0.01
2013-5-21,58,55,53,55,54,52,99,94,88,0.00,40.00,9,7,18,0.38
2013-5-22,56,54,47,56,53,47,100,96,87,0.00,40.00,8,5,12,0.10
2013-5-23,47,42,38,47,33,28,99,73,50,0.00,40.00,16,11,32,0.44
2013-5-24,50,40,26,31,27,23,93,63,41,0.00,40.00,11,6,19,0.01
2013-5-25,61,47,29,36,29,25,93,55,25,0.00,40.00,10,6,17,0.00
2013-5-26,65,50,27,38,26,20,90,46,19,0.00,40.00,9,4,16,0.00
2013-5-27,71,53,27,40,27,23,83,44,19,0.00,40.00,10,5,21,0.00
2013-5-28,54,50,45,51,41,26,99,72,35,0.00,40.00,10,6,20,0.05
2013-5-29,65,57,50,58,53,50,100,90,70,0.00,40.00,11,5,18,0.03
2013-5-30,84,67,53,65,59,53,100,80,48,0.00,40.00,15,7,27,0.01
2013-5-31,74,68,64,66,62,59,97,83,60,0.00,40.00,19,10,29,0.14
2013-6-1,70,63,58,65,60,55,99,90,74,0.00,40.00,14,6,28,0.34
2013-6-2,58,46,38,57,41,-100,98,86,68,0.00,40.00,14,9,25,0.48
2013-6-3,55,45,36,35,32,29,87,63,41,0.00,40.00,12,7,22,0.04
2013-6-4,65,50,29,35,29,25,84,50,24,0.00,40.00,9,5,15,0.00
2013-6-5,56,52,45,44,40,33,80,66,55,0.00,40.00,9,4,17,0.00
2013-6-6,70,57,48,44,38,29,84,54,25,0.00,40.00,8,5,19,0.00
2013-6-7,73,57,42,43,36,28,88,51,23,0.00,40.00,10,5,17,0.00
2013-6-8,74,54,34,47,38,31,91,59,28,0.00,40.00,7,3,13,0.06
2013-6-9,76,63,34,50,41,32,93,50,28,0.00,40.00,10,5,18,0.06
2013-6-10,74,64,56,58,51,44,88,64,53,0.00,40.00,10,6,17,0.00
2013-6-11,69,63,54,63,59,53,98,88,75,0.00,40.00,8,3,14,0.17
2013-6-12,78,62,47,59,50,46,100,71,37,0.00,40.00,7,3,13,0.04
2013-6-13,67,57,46,56,49,41,95,76,55,0.00,40.00,13,8,24,0.00
2013-6-14,67,55,37,43,37,27,92,55,22,0.00,40.00,8,5,13,0.00
2013-6-15,72,57,37,57,43,34,96,62,33,0.00,40.00,12,4,18,0.04
2013-6-16,75,62,48,61,56,47,100,84,42,0.00,40.00,9,5,20,0.06
2013-6-17,64,53,47,50,47,41,99,83,57,0.00,40.00,9,5,15,0.02
2013-6-18,67,57,35,46,37,33,95,53,29,0.00,40.00,11,6,20,0.00
2013-6-20,72,60,56,51,50,48,76,68,42,0.00,40.00,9,6,14,0.00
2013-6-22,72,66,60,64,62,59,100,87,74,0.00,40.00,8,4,13,0.70
2013-6-23,79,66,60,66,62,60,100,90,59,0.00,40.00,15,6,24,0.05
2013-6-24,81,71,59,66,63,58,99,80,56,0.00,40.00,10,6,19,0.04
2013-6-25,86,69,60,66,61,57,93,77,40,0.00,40.00,10,6,16,0.00
2013-6-26,87,71,54,66,60,53,99,74,35,0.00,40.00,7,4,17,0.00
2013-6-27,76,67,62,67,63,57,98,88,59,0.00,40.00,7,4,17,0.63
2013-6-28,74,65,57,65,61,57,100,88,70,0.00,40.00,11,4,18,0.07
2013-6-29,75,65,58,59,55,49,98,73,47,0.00,40.00,11,6,17,0.02
2013-6-30,75,64,47,51,44,38,96,52,31,0.00,40.00,12,7,20,0.01
2013-7-1,75,62,48,49,44,39,94,57,34,0.00,40.00,8,5,14,0.00
2013-7-2,73,68,57,46,40,37,66,36,28,0.00,40.00,8,5,15,0.00
2013-7-3,79,68,53,56,47,41,93,53,28,0.00,40.00,8,3,14,0.01
2013-7-4,75,67,55,62,58,51,97,72,57,0.00,40.00,13,8,19,0.01
2013-7-5,83,70,58,63,57,54,95,66,37,0.00,40.00,14,8,22,0.00
2013-7-6,85,72,63,63,58,54,80,61,39,0.00,40.00,17,10,29,0.00
2013-7-7,81,70,60,71,64,57,97,80,56,0.00,40.00,8,4,21,1.05
2013-7-8,72,66,62,67,64,61,100,95,82,0.00,40.00,6,3,12,0.87
2013-7-9,79,70,59,69,65,58,100,86,63,0.00,40.00,8,4,14,0.01
2013-7-10,68,63,60,68,55,-100,99,80,57,0.00,40.00,12,8,29,0.05
2013-7-11,74,61,48,54,49,47,97,68,41,0.00,40.00,9,4,15,0.01
2013-7-12,81,66,44,59,50,43,97,62,33,0.00,40.00,12,6,19,0.00
2013-7-13,82,71,52,62,54,49,91,59,34,0.00,40.00,12,8,20,0.00
2013-7-14,85,73,51,63,58,50,98,64,39,0.00,40.00,12,6,19,0.00
2013-7-15,90,73,58,65,62,57,95,71,39,0.00,40.00,9,3,17,0.00
2013-7-16,90,84,69,72,66,59,80,58,36,0.00,40.00,12,10,20,0.00
2013-7-17,92,79,70,73,69,61,97,76,38,0.00,40.00,11,6,22,0.00
2013-7-18,72,69,65,69,67,64,98,94,86,0.00,40.00,12,5,27,0.83
2013-7-19,77,67,63,69,63,56,98,88,54,0.00,40.00,17,6,33,1.83
2013-7-20,65,58,50,57,49,-100,91,75,48,0.00,40.00,10,6,19,0.22
2013-7-21,69,51,40,54,46,39,97,85,48,0.00,40.00,7,3,12,0.00
2013-7-22,78,64,56,64,56,50,93,78,50,0.00,40.00,16,6,25,0.00
2013-7-23,73,60,52,65,50,42,87,70,52,0.00,40.00,17,9,32,0.00
2013-7-24,71,58,40,50,45,39,98,66,41,0.00,40.00,10,4,15,0.00
2013-7-25,74,62,46,57,52,44,96,71,44,0.00,40.00,12,6,21,0.00
2013-7-26,66,61,57,62,59,55,99,94,78,0.00,40.00,9,5,29,2.98
2013-7-27,60,54,49,57,51,47,99,90,76,0.00,40.00,9,5,15,1.03
2013-7-28,60,54,47,55,49,46,97,86,61,0.00,40.00,12,6,19,0.01
2013-7-29,67,56,50,54,51,47,98,85,51,0.00,40.00,9,5,19,0.01
2013-7-30,74,62,41,60,52,40,97,74,52,0.00,40.00,12,5,19,0.01
2013-7-31,72,60,57,63,57,53,97,88,68,0.00,40.00,10,4,29,0.73
2013-8-1,67,60,52,57,54,51,100,84,61,0.00,40.00,8,4,17,0.73
2013-8-2,70,57,47,63,53,46,98,87,63,0.00,40.00,9,4,16,0.41
2013-8-3,62,56,48,54,50,47,98,81,64,0.00,40.00,9,6,17,0.02
2013-8-4,70,60,47,53,48,44,90,66,41,0.00,40.00,10,6,16,0.00
2013-8-5,70,58,43,56,49,42,97,75,41,0.00,40.00,12,5,17,0.00
2013-8-6,72,64,57,63,59,54,95,83,66,0.00,40.00,11,6,19,0.01
2013-8-7,71,64,54,64,60,51,99,89,69,0.00,40.00,9,4,16,0.37
2013-8-8,71,59,40,54,49,39,97,72,47,0.00,40.00,8,4,14,0.01
2013-8-9,70,60,51,60,53,42,96,78,43,0.00,40.00,11,6,24,0.35
2013-8-10,70,59,45,55,48,41,95,70,51,0.00,40.00,8,4,15,0.31
2013-8-11,74,61,45,62,52,44,98,76,45,0.00,40.00,8,4,16,0.05
2013-8-12,73,60,53,64,57,47,99,90,65,0.00,40.00,11,5,21,1.07
2013-8-13,58,54,51,49,44,-100,86,72,60,0.00,40.00,13,9,24,0.01
2013-8-14,69,57,45,53,45,41,98,71,37,0.00,40.00,9,5,17,0.00
2013-8-15,75,54,46,54,38,-100,98,72,40,0.00,40.00,9,4,17,0.00
2013-8-16,82,62,44,56,45,-100,97,64,35,0.00,40.00,9,3,16,0.00
2013-8-17,80,69,50,60,54,49,98,61,42,0.00,40.00,12,6,18,0.00
2013-8-18,79,66,52,62,53,-100,98,70,42,0.00,40.00,11,6,19,0.00
2013-8-19,77,65,58,62,48,-100,95,71,49,0.00,40.00,15,9,26,0.00
2013-8-20,82,72,65,66,61,-100,94,73,48,0.00,40.00,16,8,24,0.00
2013-8-21,81,73,66,68,65,62,93,77,60,0.00,40.00,16,10,26,0.02
2013-8-22,77,68,55,67,56,45,98,70,32,0.00,40.00,9,5,16,0.02
2013-8-23,76,65,48,60,52,47,98,65,38,0.00,40.00,6,3,14,0.00
2013-8-24,79,70,49,58,54,48,98,60,41,0.00,40.00,11,7,17,0.00
2013-8-25,77,69,60,68,60,-100,97,78,65,0.00,40.00,17,10,28,0.01
2013-8-26,81,73,63,70,67,62,99,83,65,0.00,40.00,8,6,26,0.52
2013-8-27,81,68,60,71,66,60,100,94,67,0.00,40.00,6,3,10,0.02
2013-8-28,81,75,64,67,65,63,95,71,59,0.00,40.00,9,6,15,0.01
2013-8-29,89,72,58,67,63,57,99,77,42,0.00,40.00,9,4,13,0.01
2013-8-30,73,69,65,69,66,59,97,89,75,0.00,40.00,10,6,19,1.00
2013-8-31,78,66,54,62,59,53,98,81,53,0.00,40.00,7,3,12,0.03
2013-9-1,68,62,57,65,60,-100,100,95,89,0.00,40.00,11,6,18,0.35
2013-9-2,55,52,50,53,50,49,97,91,83,0.00,40.00,11,8,20,0.22
2013-9-3,71,61,52,56,51,46,92,71,44,0.00,40.00,8,6,19,0.01
2013-9-4,61,56,45,56,47,37,91,72,51,0.00,40.00,10,6,17,0.00
2013-9-5,62,52,35,48,40,34,96,69,42,0.00,40.00,9,4,20,0.00
2013-9-6,69,59,48,61,53,46,95,83,58,0.00,40.00,15,7,23,0.28
2013-9-7,72,65,58,68,62,53,99,92,81,0.00,40.00,9,4,15,0.37
2013-9-8,68,58,47,53,46,-100,97,69,45,0.00,40.00,6,4,17,0.23
2013-9-9,64,57,50,60,54,47,97,90,78,0.00,40.00,10,4,17,0.04
2013-9-10,82,69,61,72,66,60,99,91,64,0.00,40.00,10,5,30,0.60
2013-9-11,74,66,61,65,63,60,100,90,68,0.00,40.00,8,5,17,0.50
2013-9-12,62,56,50,61,51,41,97,83,64,0.00,40.00,11,8,22,0.36
2013-9-13,53,46,40,43,38,33,92,72,56,0.00,40.00,10,7,20,0.02
2013-9-14,65,51,33,54,43,32,97,78,53,0.00,40.00,12,7,23,0.00
2013-9-15,59,54,45,57,50,-100,95,88,80,0.00,40.00,9,6,17,0.11
2013-9-16,54,45,32,39,33,30,93,66,40,0.00,40.00,10,4,15,0.04
2013-9-17,63,54,35,48,43,34,96,68,44,0.00,40.00,10,7,17,0.00
2013-9-18,60,45,43,55,44,42,99,98,85,0.00,40.00,5,2,9,0.00
2013-9-19,74,65,59,65,60,54,94,82,66,0.00,40.00,13,6,21,0.00
2013-9-20,68,64,55,65,62,52,97,94,91,0.00,40.00,10,7,19,0.95
2013-9-21,54,50,44,51,43,35,91,78,58,0.00,40.00,11,7,22,0.02
2013-9-22,54,43,35,45,36,-100,94,79,52,0.00,40.00,9,4,16,0.19
2013-9-23,61,48,29,44,38,28,96,71,46,0.00,40.00,8,4,16,0.01
2013-9-24,66,53,37,51,44,36,98,76,44,0.00,40.00,6,4,14,0.00
2013-9-25,70,59,34,50,44,33,98,60,33,0.00,40.00,6,3,11,0.00
2013-9-26,73,64,42,45,42,38,95,48,29,0.00,40.00,7,5,12,0.00
2013-9-27,75,63,43,51,48,41,97,62,35,0.00,40.00,9,6,16,0.00
2013-9-28,71,60,50,55,52,48,95,77,49,0.00,40.00,14,8,24,0.00
2013-9-29,67,56,44,59,48,-100,97,78,46,0.00,40.00,10,5,20,0.32
2013-9-30,66,57,40,52,46,39,98,69,38,0.00,40.00,14,7,19,0.00
2013-10-1,64,61,51,61,59,49,97,93,89,0.00,40.00,8,4,19,0.00
2013-10-2,69,58,46,55,42,31,98,61,24,0.00,40.00,10,6,21,0.00
2013-10-3,56,52,42,52,48,40,97,85,72,0.00,40.00,6,4,14,0.06
2013-10-4,62,56,53,50,48,43,90,73,58,0.00,40.00,7,4,14,0.01
2013-10-5,54,47,44,46,44,38,96,87,67,0.00,40.00,8,6,16,0.63
2013-10-6,59,53,45,58,52,44,99,97,94,0.00,40.00,9,6,21,0.72
2013-10-7,53,50,46,52,49,44,99,96,94,0.00,40.00,7,6,16,0.25
2013-10-10,70,62,49,53,46,41,91,60,36,0.00,40.00,8,5,13,0.00
2013-10-11,67,56,49,53,49,43,99,80,44,0.00,40.00,10,5,16,0.00
2013-10-12,74,58,47,59,49,45,98,76,40,0.00,40.00,11,6,21,0.08
2013-10-13,60,49,36,57,41,-100,97,79,56,0.00,40.00,10,5,19,0.08
2013-10-14,58,44,31,44,36,30,97,76,43,0.00,40.00,8,4,14,0.01
2013-10-15,56,50,38,52,46,37,98,87,64,0.00,40.00,11,6,18,0.27
2013-10-16,54,50,45,54,48,44,99,94,89,0.00,40.00,10,6,18,0.31
2013-10-17,51,44,36,43,38,33,95,80,53,0.00,40.00,7,4,11,0.01
2013-10-18,54,44,32,46,38,30,95,83,60,0.00,40.00,9,4,14,0.11
2013-10-19,49,41,33,39,35,30,96,81,49,0.00,40.00,8,4,16,0.07
2013-10-20,48,40,31,41,34,-100,97,82,63,0.00,40.00,7,4,14,0.01
2013-10-21,45,40,32,43,36,22,98,85,62,0.00,40.00,11,8,21,0.07
2013-10-22,42,34,27,33,28,21,94,79,65,0.00,40.00,13,7,25,0.02
2013-10-23,37,33,28,34,29,22,96,87,63,0.00,40.00,11,7,19,0.13
2013-10-24,42,35,32,38,33,31,97,92,67,0.00,40.00,8,5,15,0.27
2013-10-25,43,37,30,37,31,24,97,80,51,0.00,40.00,14,8,27,0.09
2013-10-26,43,39,32,40,36,30,95,87,71,0.00,40.00,15,9,26,0.43
2013-10-27,43,36,31,36,30,-100,96,84,62,0.00,40.00,11,5,23,0.05
2013-10-28,38,31,26,34,21,-100,93,68,55,0.00,40.00,11,7,22,0.11
2013-10-29,37,31,22,28,22,19,88,71,55,0.00,40.00,7,4,11,0.00
2013-10-30,44,38,31,41,36,28,97,92,84,0.00,40.00,7,4,11,0.03
2013-10-31,50,48,44,50,47,42,100,98,92,0.00,40.00,6,4,11,0.52
2013-11-1,50,44,37,50,42,35,100,96,88,0.00,40.00,13,7,27,1.06
2013-11-2,37,34,31,35,27,22,93,77,61,0.00,40.00,7,4,14,0.07
2013-11-3,40,32,26,27,20,-100,85,64,53,0.00,40.00,8,5,14,0.00
2013-11-4,45,39,31,31,29,27,87,69,54,0.00,40.00,14,11,26,0.00
2013-11-5,53,45,40,42,35,30,97,69,45,0.00,40.00,11,6,21,0.15
2013-11-6,47,41,33,47,40,30,99,96,86,0.00,40.00,12,7,24,0.88
2013-11-7,35,32,31,33,31,30,97,95,88,0.00,40.00,11,7,20,0.12
2013-11-8,38,32,27,32,30,26,96,91,78,0.00,40.00,6,4,11,0.08
2013-11-9,40,35,30,39,32,-100,98,92,87,0.00,40.00,14,9,22,0.20
2013-11-10,37,35,31,36,30,25,95,82,64,0.00,40.00,14,7,25,0.15
2013-11-11,37,28,23,31,20,14,94,74,61,0.00,40.00,12,10,27,0.01
2013-11-12,26,24,22,18,16,11,83,70,60,0.00,40.00,13,8,25,0.01
2013-11-13,40,31,18,30,21,9,79,65,55,0.00,40.00,20,13,41,0.01
2013-11-14,42,38,36,36,32,28,95,76,64,0.00,40.00,14,9,24,0.06
2013-11-15,48,40,34,38,36,33,97,86,64,0.00,40.00,13,7,19,0.06
2013-11-16,47,39,32,46,36,-100,98,92,80,0.00,40.00,11,7,21,0.36
2013-11-17,55,52,43,55,51,41,99,97,93,0.00,40.00,15,8,32,2.44
2013-11-18,43,31,27,41,28,20,93,87,73,0.00,40.00,14,12,32,1.15
2013-11-19,33,26,22,20,18,16,88,71,56,0.00,40.00,12,6,22,0.01
2013-11-20,38,32,23,31,25,20,90,76,59,0.00,40.00,11,7,19,0.01
2013-11-21,38,36,34,35,33,28,98,88,76,0.00,40.00,6,3,13,0.00
2013-11-22,36,27,18,35,23,15,98,87,74,0.00,40.00,11,6,23,0.04
2013-11-23,25,15,12,23,8,-100,91,77,60,0.00,40.00,13,10,29,0.01
2013-11-24,20,15,11,16,6,1,88,66,53,0.00,40.00,13,7,20,0.00
2013-11-25,31,28,20,26,23,16,92,80,69,0.00,40.00,17,12,27,0.00
2013-11-26,31,24,14,26,20,10,90,83,72,0.00,40.00,9,6,17,0.00
2013-11-27,21,18,13,16,7,4,89,64,50,0.00,40.00,14,9,24,0.00
2013-11-28,18,13,10,10,7,4,84,76,65,0.00,40.00,5,3,11,0.00
2013-11-29,29,22,9,20,14,5,85,72,55,0.00,40.00,7,4,12,0.05
2013-11-30,31,28,25,29,22,-100,95,84,72,0.00,40.00,13,6,22,0.01
2013-12-1,30,28,23,29,25,20,96,89,75,0.00,40.00,3,1,6,0.00
2013-12-2,37,28,15,21,19,12,88,69,48,0.00,40.00,5,2,8,0.20
2013-12-3,21,17,9,18,13,5,87,83,76,0.00,40.00,5,4,14,0.01
2013-12-4,33,24,20,32,21,17,97,89,81,0.00,40.00,10,7,20,0.01
2013-12-5,41,29,13,41,20,2,99,71,47,0.00,40.00,18,12,33,0.69
2013-12-6,21,13,8,8,4,-1,73,66,55,0.00,40.00,16,10,22,0.15
2013-12-7,18,10,6,3,-1,-100,75,63,49,0.00,40.00,14,10,23,0.00
2013-12-8,18,8,-2,13,0,-9,87,69,47,0.00,40.00,8,5,14,0.00
2013-12-9,25,17,6,21,12,-3,90,80,64,0.00,40.00,18,8,29,0.00
2013-12-10,13,5,-6,5,-4,-13,80,67,50,0.00,40.00,17,9,26,0.00
2013-12-11,12,6,0,5,-2,-9,80,71,64,0.00,40.00,15,10,24,0.00
2013-12-12,13,6,-3,5,-4,-15,78,64,54,0.00,40.00,14,11,22,0.00
2013-12-13,11,3,-5,7,-3,-11,84,75,63,0.00,40.00,14,4,19,0.00
2013-12-14,4,0,-9,-2,-9,-100,77,68,65,0.00,40.00,5,4,12,0.00
2013-12-15,15,6,3,7,1,-3,83,77,70,0.00,40.00,6,3,11,0.00
2013-12-16,11,3,-8,5,-4,-15,83,73,59,0.00,40.00,7,4,12,0.00
2013-12-17,18,14,9,14,10,5,89,85,81,0.00,40.00,6,4,11,0.00
2013-12-18,20,17,13,17,12,9,90,81,66,0.00,40.00,10,6,15,0.00
2013-12-19,26,20,16,22,16,11,89,83,75,0.00,40.00,9,6,22,0.00
2013-12-20,19,15,11,13,10,7,85,80,67,0.00,40.00,5,3,12,0.00
2013-12-21,24,17,14,15,11,-100,88,81,69,0.00,40.00,6,2,11,0.00
2013-12-22,18,14,6,11,7,0,83,75,66,0.00,40.00,12,7,20,0.00
2013-12-23,8,4,-3,1,-2,-10,79,74,62,0.00,40.00,5,3,11,0.00
2013-12-24,13,-3,-10,-3,-11,-18,77,68,47,0.00,40.00,5,3,8,0.00
2013-12-25,18,10,-1,15,6,-7,89,83,74,0.00,40.00,12,6,18,0.00
2013-12-26,22,13,5,16,8,0,85,81,72,0.00,40.00,8,5,14,0.02
2013-12-27,32,16,3,30,12,-2,94,82,70,0.00,40.00,12,7,19,0.01
2013-12-28,33,30,29,31,27,-100,97,90,85,0.00,40.00,7,4,15,0.03
2013-12-29,32,12,4,31,8,-3,96,83,72,0.00,40.00,10,7,21,0.01